Home > Weather > New Westminster > Past weeks

Flag for Canada Past Weather in New Westminster, British Columbia, Canada — Yesterday and Last 2 Weeks

Now
79 °F

Warm.


Feels Like: 80 °F
Forecast: 55 / 81 °F
Wind: 6 mph from West

Location: P. Meadows Coastal Station

Current Time: Jun 26, 2016 at 5:40:16 PM

Latest Report: Jun 26, 2016 at 5:00 PM


Visibility: N/A

Pressure: 30.14 "Hg

Humidity: 44%

Dew Point: 55 °F

Location of New WestminsterLocation

Past Weather in New Westminster — Graph

°F

New Westminster Temperature Yesterday

Maximum temperature yesterday: 71 °F (at 6:00 PM)
Minimum temperature yesterday: 56 °F (at 7:00 AM)
Average temperature yesterday: 62 °F

High & Low Weather Summary for the Past Weeks

 TemperatureHumidityPressure
High77 °F (Jun 26, 3:00 PM)98% (Jun 15, 5:00 AM)30.42 "Hg (Jun 15, 5:00 AM)
Low44 °F (Jun 16, 2:00 AM)33% (Jun 17, 3:00 PM)29.87 "Hg (Jun 13, 9:00 PM)
Average58 °F75%30.12 "Hg
* Reported Jun 11 4:00 PM — Jun 26 4:00 PM, New Westminster, Weather by CustomWeather, © 2016

Note: Actual official high and low records may vary slightly from our data, if they occured in-between our weather recording intervals... More about our weather records

Advertising

New Westminster Weather History for the Previous 24 Hours

Scroll right to see more
 ConditionsComfort  
Time TempWeatherWind HumidityBarometerVisibility
4:00 PM
Sun, Jun 26
77 °FWarm.7 mph51%30.16 "HgN/A
3:00 PM77 °FWarm.8 mph50%30.17 "HgN/A
2:00 PM76 °FMild.8 mph57%30.18 "HgN/A
1:00 PM75 °FMild.6 mph59%30.19 "HgN/A
12:00 PM72 °FMild.5 mph57%30.20 "HgN/A
11:00 AM70 °FMild.3 mph64%30.22 "HgN/A
10:00 AM68 °FMild.5 mph68%30.23 "HgN/A
9:00 AM64 °FMild.2 mph76%30.24 "HgN/A
8:00 AM61 °FCool.2 mph81%30.24 "HgN/A
7:00 AM57 °FCool.2 mph89%30.24 "HgN/A
6:00 AM53 °FCool.No wind94%30.24 "HgN/A
5:00 AM51 °FCool.No wind93%30.24 "HgN/A
4:00 AM53 °FCool.No wind87%30.23 "HgN/A
3:00 AM54 °FCool.1 mph91%30.23 "HgN/A
2:00 AM53 °FCool.No wind96%30.23 "HgN/A
1:00 AM56 °FCool.No wind87%30.23 "HgN/A
12:00 AM58 °FCool.No wind85%30.23 "HgN/A
11:00 PM
Sat, Jun 25
59 °FCool.No wind78%30.23 "HgN/A
10:00 PM63 °FMild.1 mph69%30.22 "HgN/A
9:00 PM65 °FMild.3 mph63%30.21 "HgN/A
8:00 PM68 °FMild.5 mph59%30.21 "HgN/A
7:00 PM70 °FMild.6 mph55%30.22 "HgN/A
6:00 PM71 °FMild.3 mph59%30.22 "HgN/A
5:00 PM69 °FMild.5 mph61%30.24 "HgN/A
Weather by CustomWeather, © 2016

See weather overviewHow to use our weather pages